Location: Hancock Field Station
(44.9202°N, 120.4259°W)
Time: 06:08:58
(UTC-08:00)

Nadezhda 4 Rocket - Visible Passes

Search period start: 28 January 2015 00:00
Search period end: 07 February 2015 00:00
Orbit: 949 x 993 km, 82.9° (Epoch: 27 January)

Date Brightness Start Highest point End Pass type
(mag) Time Alt. Az. Time Alt. Az. Time Alt. Az.
28 Jan 7.1 04:36:07 10° E 04:37:21 11° ENE 04:39:01 10° ENE visible
28 Jan 4.3 06:15:28 10° S 06:21:41 73° E 06:27:54 10° NNE visible
28 Jan 6.5 18:55:16 10° NW 18:59:42 21° W 19:03:55 10° SW visible
29 Jan 6.5 04:56:52 10° SE 05:01:06 20° E 05:05:31 10° NE visible
29 Jan 4.0 06:39:38 10° SSW 06:45:52 68° W 06:52:04 10° N visible
29 Jan 4.3 17:32:57 10° N 17:39:06 76° W 17:45:11 10° S visible
29 Jan 7.1 19:21:37 10° WNW 19:23:27 11° WNW 19:24:52 10° W visible
30 Jan 5.7 05:19:29 10° SSE 05:24:58 34° E 05:30:31 10° NNE visible
30 Jan 5.3 17:57:21 10° NNW 18:03:08 44° W 18:08:50 10° SSW visible
31 Jan 4.6 05:42:51 10° S 05:48:57 59° E 05:55:03 10° NNE visible
31 Jan 6.3 18:22:06 10° NNW 18:27:03 25° W 18:31:49 10° SW visible
01 Feb 6.7 04:25:03 10° ESE 04:28:28 16° E 04:32:10 10° NE visible
01 Feb 4.0 06:06:48 10° S 06:13:04 83° W 06:19:18 10° N visible
01 Feb 6.9 18:47:36 10° NW 18:50:50 14° W 18:53:45 10° WSW visible
02 Feb 6.0 04:47:13 10° SE 04:52:17 28° E 04:57:28 10° NNE visible
02 Feb 4.2 06:31:18 10° SSW 06:37:21 49° WNW 06:43:19 10° N visible
03 Feb 5.0 05:10:19 10° SSE 05:16:13 47° E 05:22:08 10° NNE visible
03 Feb 6.0 17:49:01 10° NNW 17:54:22 31° W 17:59:34 10° SW visible
04 Feb 6.9 03:53:37 10° E 03:55:51 12° E 03:58:27 10° NE visible
04 Feb 4.1 05:34:04 10° S 05:40:17 81° E 05:46:30 10° N visible
04 Feb 6.7 18:14:07 10° NW 18:18:12 18° W 18:22:01 10° WSW visible
05 Feb 6.2 04:15:05 10° SE 04:19:37 22° E 04:24:19 10° NE visible
05 Feb 4.0 05:58:21 10° SSW 06:04:30 60° WNW 06:10:36 10° N visible
06 Feb 5.3 04:37:53 10° SSE 04:43:31 38° E 04:49:11 10° NNE visible
06 Feb 4.5 06:23:12 10° SW 06:28:53 35° WNW 06:34:28 10° N visible
